Simultaneous Nadir Overpasses (SNOs) Predictions

Prediction of SNOs between METOP-A and NOAA-19 Satellite Orbit:

Table of predicted SNOs for the next 14.0 days since TLE Epoch: 12/9/2011
Index Date Time (METOP-A) METOP-A Lat,Lon NOAA-19 Lat,Lon Distance(km) Time Diff (sec)
1 12/11/2011 07:03:16 75.39, 72.60 75.38, 60.64 335.26 35
2 12/11/2011 07:54:14 -74.59,-122.38 -74.62,-129.85 220.43 52
3 12/11/2011 08:45:16 73.46, 42.15 73.48, 40.28 59.17 70
4 12/11/2011 09:36:06 -73.03,-151.49 -73.02,-151.43 2.03 72
5 12/11/2011 10:26:47 72.99, 15.75 73.00, 15.84 3.26 45
6 12/11/2011 11:17:28 -73.01,-176.88 -72.99,-176.89 1.74 29
7 12/11/2011 12:08:09 72.96, -9.64 72.97, -9.61 0.87 2
8 12/11/2011 12:58:51 -72.94, 157.63 -72.96, 157.66 3.04 13
9 12/11/2011 13:49:31 72.94, -35.03 72.93, -35.07 1.71 41
10 12/11/2011 14:40:13 -72.91, 132.24 -72.93, 132.20 2.23 56
11 12/11/2011 15:31:00 72.56, -61.16 72.55, -59.77 46.16 70
12 12/11/2011 16:21:54 -71.92, 104.91 -71.99, 108.61 127.75 62
13 12/11/2011 17:13:00 70.57, -90.13 70.62, -81.72 310.73 38
14 12/11/2011 18:04:06 -69.28, 75.24 -69.31, 87.57 484.42 4
15 12/21/2011 01:52:05 75.56, 150.95 75.55, 137.88 362.03 30
16 12/21/2011 02:43:03 -74.77, -44.08 -74.77, -52.49 245.60 48
17 12/21/2011 03:34:07 73.60, 120.27 73.61, 117.75 78.95 67
18 12/21/2011 04:25:00 -73.02, -73.71 -73.03, -73.67 2.23 75
19 12/21/2011 05:15:40 73.02, 93.63 73.03, 93.55 2.65 46
20 12/21/2011 06:06:22 -73.00, -99.10 -73.00, -99.13 1.35 32
21 12/21/2011 06:57:03 72.95, 68.13 72.95, 68.21 2.42 5
22 12/21/2011 07:47:44 -72.97,-124.48 -72.97,-124.58 3.27 11
23 12/21/2011 08:38:25 72.92, 42.75 72.92, 42.75 0.81 38
24 12/21/2011 09:29:07 -72.90,-149.98 -72.89,-149.93 1.75 52
25 12/21/2011 10:19:52 72.65, 16.82 72.64, 17.83 33.38 71
26 12/21/2011 11:10:45 -72.06,-177.01 -72.11,-173.83 109.00 64
27 12/21/2011 12:01:51 70.71, -12.09 70.76, -4.17 290.76 41




NCC Satellite Simultaneous Nadir Overpasses (SNOs) Prediction Service
